Location: Hokitika
(42.7170°S, 170.9670°E)
Time: 14:49:08
(UTC+13:00)

Cosmos 2322 - Pass Details

Date: 24 January 2019
Orbit: 839 x 856 km, 71.0° (Epoch: 16 February)

Event Time Altitude Azimuth Distance (km) Brightness Sun altitude
Exits shadow 23:18:14 20° 349° (NNW) 1,871 5.1 -19.1°
Maximum altitude 23:22:15 71° 68° (ENE) 902 3.6 -19.5°
Drops below altitude 10° 23:27:57 10° 151° (SSE) 2,493 6.5 -20.2°
Sets 23:30:25 0° 153° (SSE) 3,433 7.3 -20.4°
